Time,TemperatureF,DewpointF,PressureIn,WindDirection,WindDirectionDegrees,WindSpeedMPH,WindSpeedGustMPH,Humidity,HourlyPrecipIn,Conditions,Clouds,dailyrainin,SoftwareType,DateUTC
2013-04-02 00:11:00,43.8,25.0,29.97,WNW,283,5.0,7.0,47,0.00,,,0.00,weatherlink.com 1.10,2013-04-02 04:11:00,
2013-04-02 00:26:00,43.3,25.0,29.98,NW,323,2.0,5.0,48,0.00,,,0.00,weatherlink.com 1.10,2013-04-02 04:26:00,
2013-04-02 00:41:00,42.9,23.0,29.99,WNW,284,2.0,6.0,46,0.00,,,0.00,weatherlink.com 1.10,2013-04-02 04:41:00,
2013-04-02 00:57:00,42.8,23.0,29.99,WNW,300,2.0,7.0,45,0.00,,,0.00,weatherlink.com 1.10,2013-04-02 04:57:00,
2013-04-02 01:12:00,42.5,21.0,30.00,NW,322,1.0,7.0,42,0.00,,,0.00,weatherlink.com 1.10,2013-04-02 05:12:00,
2013-04-02 01:27:00,42.3,21.0,30.00,WNW,298,6.0,7.0,42,0.00,,,0.00,weatherlink.com 1.10,2013-04-02 05:27:00,
2013-04-02 01:42:00,41.8,21.0,30.00,NW,306,2.0,7.0,43,0.00,,,0.00,weatherlink.com 1.10,2013-04-02 05:42:00,
2013-04-02 01:57:00,41.5,21.0,30.00,WNW,291,2.0,6.0,45,0.00,,,0.00,weatherlink.com 1.10,2013-04-02 05:57:00,
2013-04-02 02:12:00,41.0,20.0,30.01,WNW,298,3.0,5.0,44,0.00,,,0.00,weatherlink.com 1.10,2013-04-02 06:12:00,
2013-04-02 02:27:00,40.8,20.0,30.01,NW,304,1.0,3.0,44,0.00,,,0.00,weatherlink.com 1.10,2013-04-02 06:27:00,
2013-04-02 02:42:00,40.4,20.0,30.00,NW,306,0.0,4.0,44,0.00,,,0.00,weatherlink.com 1.10,2013-04-02 06:42:00,
2013-04-02 02:57:00,40.1,20.0,30.00,WNW,300,0.0,5.0,45,0.00,,,0.00,weatherlink.com 1.10,2013-04-02 06:57:00,
2013-04-02 03:12:00,40.3,20.0,30.01,WNW,301,2.0,6.0,44,0.00,,,0.00,weatherlink.com 1.10,2013-04-02 07:12:00,
2013-04-02 03:27:00,40.3,20.0,30.01,WNW,298,2.0,4.0,44,0.00,,,0.00,weatherlink.com 1.10,2013-04-02 07:27:00,
2013-04-02 03:42:00,39.9,20.0,30.01,WNW,298,0.0,2.0,46,0.00,,,0.00,weatherlink.com 1.10,2013-04-02 07:42:00,
2013-04-02 03:57:00,39.2,21.0,30.01,WNW,298,2.0,2.0,48,0.00,,,0.00,weatherlink.com 1.10,2013-04-02 07:57:00,
2013-04-02 04:12:00,38.9,21.0,30.01,WNW,298,0.0,2.0,49,0.00,,,0.00,weatherlink.com 1.10,2013-04-02 08:12:00,
2013-04-02 04:27:00,38.7,21.0,30.00,WNW,298,1.0,3.0,50,0.00,,,0.00,weatherlink.com 1.10,2013-04-02 08:27:00,
2013-04-02 04:42:00,38.8,21.0,30.01,WNW,298,2.0,3.0,50,0.00,,,0.00,weatherlink.com 1.10,2013-04-02 08:42:00,
2013-04-02 04:57:00,38.9,22.0,30.01,WNW,298,0.0,3.0,50,0.00,,,0.00,weatherlink.com 1.10,2013-04-02 08:57:00,
2013-04-02 05:12:00,39.3,19.0,30.02,WNW,293,2.0,6.0,45,0.00,,,0.00,weatherlink.com 1.10,2013-04-02 09:12:00,
2013-04-02 05:27:00,39.6,20.0,30.02,WNW,296,0.0,5.0,46,0.00,,,0.00,weatherlink.com 1.10,2013-04-02 09:27:00,
2013-04-02 05:42:00,39.6,20.0,30.02,WNW,300,2.0,5.0,46,0.00,,,0.00,weatherlink.com 1.10,2013-04-02 09:42:00,
2013-04-02 05:57:00,39.4,21.0,30.03,WNW,287,1.0,4.0,47,0.00,,,0.00,weatherlink.com 1.10,2013-04-02 09:57:00,
2013-04-02 06:12:00,39.3,20.0,30.04,WNW,294,1.0,4.0,47,0.00,,,0.00,weatherlink.com 1.10,2013-04-02 10:12:00,
2013-04-02 06:27:00,39.3,20.0,30.04,NW,313,2.0,4.0,47,0.00,,,0.00,weatherlink.com 1.10,2013-04-02 10:27:00,
2013-04-02 06:42:00,38.9,20.0,30.05,South,184,0.0,4.0,46,0.00,,,0.00,weatherlink.com 1.10,2013-04-02 10:42:00,
2013-04-02 06:57:00,38.5,20.0,30.05,WNW,290,1.0,6.0,47,0.00,,,0.00,weatherlink.com 1.10,2013-04-02 10:57:00,
2013-04-02 07:12:00,38.8,19.0,30.06,West,270,4.0,9.0,46,0.00,,,0.00,weatherlink.com 1.10,2013-04-02 11:12:00,
2013-04-02 07:27:00,39.2,20.0,30.07,WNW,293,0.0,5.0,47,0.00,,,0.00,weatherlink.com 1.10,2013-04-02 11:27:00,
2013-04-02 07:42:00,39.2,20.0,30.08,WNW,299,0.0,5.0,47,0.00,,,0.00,weatherlink.com 1.10,2013-04-02 11:42:00,
2013-04-02 07:57:00,39.4,21.0,30.09,WNW,302,3.0,5.0,48,0.00,,,0.00,weatherlink.com 1.10,2013-04-02 11:57:00,
2013-04-02 08:12:00,40.1,23.0,30.10,West,280,0.0,4.0,50,0.00,,,0.00,weatherlink.com 1.10,2013-04-02 12:12:00,
2013-04-02 08:28:00,40.3,22.0,30.11,West,259,0.0,2.0,48,0.00,,,0.00,weatherlink.com 1.10,2013-04-02 12:28:00,
2013-04-02 08:43:00,40.7,21.0,30.11,NW,307,0.0,4.0,46,0.00,,,0.00,weatherlink.com 1.10,2013-04-02 12:43:00,
2013-04-02 08:58:00,41.3,22.0,30.11,West,263,0.0,4.0,47,0.00,,,0.00,weatherlink.com 1.10,2013-04-02 12:58:00,
2013-04-02 09:13:00,41.9,22.0,30.11,West,273,2.0,6.0,45,0.00,,,0.00,weatherlink.com 1.10,2013-04-02 13:13:00,
2013-04-02 09:28:00,41.7,19.0,30.11,North,355,2.0,7.0,41,0.00,,,0.00,weatherlink.com 1.10,2013-04-02 13:28:00,
2013-04-02 09:43:00,42.0,21.0,30.11,WSW,255,4.0,8.0,43,0.00,,,0.00,weatherlink.com 1.10,2013-04-02 13:43:00,
2013-04-02 09:58:00,43.1,21.0,30.10,WNW,303,0.0,6.0,41,0.00,,,0.00,weatherlink.com 1.10,2013-04-02 13:58:00,
2013-04-02 10:13:00,44.2,20.0,30.11,WSW,255,0.0,7.0,38,0.00,,,0.00,weatherlink.com 1.10,2013-04-02 14:13:00,
2013-04-02 10:28:00,44.8,21.0,30.10,WNW,282,0.0,10.0,39,0.00,,,0.00,weatherlink.com 1.10,2013-04-02 14:28:00,
2013-04-02 10:43:00,45.2,20.0,30.10,SW,219,2.0,8.0,37,0.00,,,0.00,weatherlink.com 1.10,2013-04-02 14:43:00,
2013-04-02 10:58:00,46.0,20.0,30.10,SW,215,1.0,8.0,35,0.00,,,0.00,weatherlink.com 1.10,2013-04-02 14:58:00,
2013-04-02 11:13:00,46.5,19.0,30.10,WNW,288,1.0,7.0,33,0.00,,,0.00,weatherlink.com 1.10,2013-04-02 15:13:00,
2013-04-02 11:28:00,46.1,18.0,30.09,SSW,212,3.0,9.0,33,0.00,,,0.00,weatherlink.com 1.10,2013-04-02 15:28:00,
2013-04-02 11:43:00,46.2,19.0,30.09,NW,314,2.0,7.0,34,0.00,,,0.00,weatherlink.com 1.10,2013-04-02 15:43:00,
2013-04-02 11:58:00,46.6,17.0,30.09,NW,324,5.0,8.0,31,0.00,,,0.00,weatherlink.com 1.10,2013-04-02 15:58:00,
2013-04-02 12:13:00,47.1,18.0,30.09,WNW,286,5.0,9.0,31,0.00,,,0.00,weatherlink.com 1.10,2013-04-02 16:13:00,
2013-04-02 12:28:00,46.9,14.0,30.09,West,265,5.0,11.0,27,0.00,,,0.00,weatherlink.com 1.10,2013-04-02 16:28:00,
2013-04-02 12:43:00,47.0,14.0,30.09,WNW,287,1.0,9.0,27,0.00,,,0.00,weatherlink.com 1.10,2013-04-02 16:43:00,
2013-04-02 12:58:00,47.3,16.0,30.08,West,261,5.0,16.0,29,0.00,,,0.00,weatherlink.com 1.10,2013-04-02 16:58:00,
2013-04-02 13:28:00,47.7,16.0,30.08,NW,304,3.0,12.0,28,0.00,,,0.00,weatherlink.com 1.10,2013-04-02 17:28:00,
2013-04-02 13:43:00,47.7,15.0,30.08,WNW,292,8.0,10.0,27,0.00,,,0.00,weatherlink.com 1.10,2013-04-02 17:43:00,
2013-04-02 13:58:00,47.9,16.0,30.07,NW,325,11.0,11.0,28,0.00,,,0.00,weatherlink.com 1.10,2013-04-02 17:58:00,
2013-04-02 14:13:00,48.4,16.0,30.07,West,260,5.0,11.0,27,0.00,,,0.00,weatherlink.com 1.10,2013-04-02 18:13:00,
2013-04-02 14:28:00,48.0,15.0,30.07,NW,315,4.0,10.0,27,0.00,,,0.00,weatherlink.com 1.10,2013-04-02 18:28:00,
2013-04-02 14:43:00,48.2,15.0,30.06,West,272,4.0,12.0,27,0.00,,,0.00,weatherlink.com 1.10,2013-04-02 18:43:00,
2013-04-02 14:58:00,48.7,18.0,30.06,NW,304,4.0,9.0,29,0.00,,,0.00,weatherlink.com 1.10,2013-04-02 18:58:00,
2013-04-02 15:13:00,49.0,16.0,30.06,West,279,6.0,12.0,27,0.00,,,0.00,weatherlink.com 1.10,2013-04-02 19:13:00,
2013-04-02 15:28:00,48.9,18.0,30.05,West,278,1.0,13.0,29,0.00,,,0.00,weatherlink.com 1.10,2013-04-02 19:28:00,
2013-04-02 15:43:00,49.2,17.0,30.05,WNW,302,3.0,11.0,28,0.00,,,0.00,weatherlink.com 1.10,2013-04-02 19:43:00,
2013-04-02 15:58:00,49.2,17.0,30.04,NW,320,7.0,8.0,28,0.00,,,0.00,weatherlink.com 1.10,2013-04-02 19:58:00,
2013-04-02 16:13:00,49.7,18.0,30.04,SE,146,2.0,9.0,29,0.00,,,0.00,weatherlink.com 1.10,2013-04-02 20:13:00,
2013-04-02 16:28:00,49.4,19.0,30.04,WSW,256,0.0,8.0,30,0.00,,,0.00,weatherlink.com 1.10,2013-04-02 20:28:00,
2013-04-02 16:43:00,49.2,17.0,30.05,NW,324,5.0,10.0,28,0.00,,,0.00,weatherlink.com 1.10,2013-04-02 20:43:00,
2013-04-02 16:58:00,49.0,17.0,30.05,NW,322,2.0,7.0,28,0.00,,,0.00,weatherlink.com 1.10,2013-04-02 20:58:00,
2013-04-02 17:13:00,49.2,17.0,30.05,NW,323,6.0,8.0,28,0.00,,,0.00,weatherlink.com 1.10,2013-04-02 21:13:00,
2013-04-02 17:28:00,48.5,17.0,30.05,West,267,3.0,8.0,29,0.00,,,0.00,weatherlink.com 1.10,2013-04-02 21:28:00,
2013-04-02 17:43:00,48.1,19.0,30.06,NW,304,5.0,11.0,31,0.00,,,0.00,weatherlink.com 1.10,2013-04-02 21:43:00,
2013-04-02 17:58:00,48.1,18.0,30.07,WNW,290,3.0,9.0,30,0.00,,,0.00,weatherlink.com 1.10,2013-04-02 21:58:00,
2013-04-02 18:13:00,47.1,17.0,30.07,WNW,289,2.0,8.0,30,0.00,,,0.00,weatherlink.com 1.10,2013-04-02 22:13:00,
2013-04-02 18:28:00,46.5,18.0,30.07,WNW,303,2.0,10.0,32,0.00,,,0.00,weatherlink.com 1.10,2013-04-02 22:28:00,
2013-04-02 18:58:00,45.6,20.0,30.09,WNW,290,0.0,5.0,36,0.00,,,0.00,weatherlink.com 1.10,2013-04-02 22:58:00,
2013-04-02 19:13:00,45.2,18.0,30.09,WNW,290,2.0,5.0,34,0.00,,,0.00,weatherlink.com 1.10,2013-04-02 23:13:00,
2013-04-02 19:28:00,44.8,19.0,30.09,NW,304,2.0,6.0,36,0.00,,,0.00,weatherlink.com 1.10,2013-04-02 23:28:00,
2013-04-02 19:43:00,44.2,19.0,30.10,WNW,287,1.0,4.0,37,0.00,,,0.00,weatherlink.com 1.10,2013-04-02 23:43:00,
2013-04-02 19:58:00,43.8,21.0,30.10,WNW,301,2.0,3.0,40,0.00,,,0.00,weatherlink.com 1.10,2013-04-02 23:58:00,
2013-04-02 20:13:00,43.4,20.0,30.11,WNW,301,0.0,4.0,39,0.00,,,0.00,weatherlink.com 1.10,2013-04-03 00:13:00,
2013-04-02 20:28:00,43.1,21.0,30.11,NW,304,1.0,3.0,41,0.00,,,0.00,weatherlink.com 1.10,2013-04-03 00:28:00,
2013-04-02 20:43:00,43.0,21.0,30.12,WNW,298,0.0,4.0,41,0.00,,,0.00,weatherlink.com 1.10,2013-04-03 00:43:00,
2013-04-02 20:58:00,42.9,21.0,30.13,NW,304,3.0,3.0,42,0.00,,,0.00,weatherlink.com 1.10,2013-04-03 00:58:00,
2013-04-02 21:13:00,42.6,21.0,30.13,WNW,299,2.0,3.0,42,0.00,,,0.00,weatherlink.com 1.10,2013-04-03 01:13:00,
2013-04-02 21:28:00,42.4,21.0,30.13,WNW,301,0.0,4.0,42,0.00,,,0.00,weatherlink.com 1.10,2013-04-03 01:28:00,
2013-04-02 21:43:00,42.4,19.0,30.14,WNW,290,2.0,4.0,40,0.00,,,0.00,weatherlink.com 1.10,2013-04-03 01:43:00,
2013-04-02 21:58:00,42.3,19.0,30.14,NW,310,1.0,5.0,40,0.00,,,0.00,weatherlink.com 1.10,2013-04-03 01:58:00,
2013-04-02 22:13:00,42.1,20.0,30.14,NW,311,2.0,3.0,41,0.00,,,0.00,weatherlink.com 1.10,2013-04-03 02:13:00,
2013-04-02 22:28:00,41.7,21.0,30.15,WNW,298,1.0,4.0,43,0.00,,,0.00,weatherlink.com 1.10,2013-04-03 02:28:00,
2013-04-02 22:44:00,41.6,19.0,30.15,West,279,3.0,8.0,41,0.00,,,0.00,weatherlink.com 1.10,2013-04-03 02:44:00,
2013-04-02 22:59:00,41.6,19.0,30.16,NW,304,2.0,4.0,41,0.00,,,0.00,weatherlink.com 1.10,2013-04-03 02:59:00,
2013-04-02 23:14:00,41.4,20.0,30.16,NW,306,3.0,5.0,42,0.00,,,0.00,weatherlink.com 1.10,2013-04-03 03:14:00,
2013-04-02 23:29:00,41.2,19.0,30.16,WNW,285,3.0,8.0,41,0.00,,,0.00,weatherlink.com 1.10,2013-04-03 03:29:00,
2013-04-02 23:44:00,41.1,19.0,30.16,NW,309,2.0,4.0,42,0.00,,,0.00,weatherlink.com 1.10,2013-04-03 03:44:00,
2013-04-02 23:59:00,40.9,19.0,30.16,WNW,302,1.0,4.0,42,0.00,,,0.00,weatherlink.com 1.10,2013-04-03 03:59:00,